User: anonymous
Location: Unspecified
(0.0000°N, 0.0000°E)
Time: 06:12:41
(UTC+00:00)
Language:

A-11 Canister half - Orbit

View from above orbital plane
View from above orbital plane
View from above satellite
View from above satellite

Ground track
Ground track

The orbit data is extracted from the following two-line orbital elements,

1 00053U 60009E   14111.88246304 -.00000084  00000-0  00000+0 0  5040
2 00053 047.2772 352.6361 0098016 278.0234 213.6537 12.17137785394695
Epoch (UTC): 21 April 2014 21:10:44
Eccentricity: 0.0098016
inclination: 47.2772°
perigee height: 1527 km
apogee height: 1683 km
right ascension of ascending node: 352.6361°
argument of perigee: 278.0234°
revolutions per day: 12.17137785
mean anomaly at epoch: 213.6537°
orbit number at epoch: 39469

The dashed part of the orbit path shows where the satellite is in the earth's shadow,  

DLR